DateTimeUTC,F1_A11,F1_S11,BsB_S11,BsG_S11,BsR_S11,BbsB_S11,BbsG_S11,BbsR_S11,BaB_A11,BaG_A11,BaR_A11,Tu_S11,T_S11,Uu_S11,U_S11,P_S11,T1_A11
2021-02-28T05:00:00Z,00000200,21000000,,,,,,,-000.23,-000.07,-000.02,16.9,24.6,,00.0,0631.1,31.0
2021-02-28T05:01:00Z,00000200,21000000,,,,,,,0000.06,0000.26,0000.28,16.8,24.6,,00.0,0631.1,31.0
2021-02-28T05:02:00Z,00000200,21000000,,,,,,,-000.05,-000.25,-000.04,16.8,24.6,,00.0,0631.1,31.0
2021-02-28T05:03:00Z,00000200,61000000,,,,,,,0000.17,-000.10,0000.02,16.8,24.6,,00.0,0631.1,31.0
2021-02-28T05:04:00Z,00000200,41000000,-001.01,0000.10,0000.22,0000.03,0000.09,-000.05,0000.22,0000.35,-000.21,17.0,24.3,,00.0,0632.0,31.0
2021-02-28T05:05:00Z,00000200,01000000,-000.36,0000.12,-000.02,0000.29,-000.06,0000.18,-000.05,-000.23,0000.03,17.0,24.3,,00.0,0632.0,31.0
2021-02-28T05:06:00Z,00000200,01000000,0000.30,0000.29,-000.17,0000.30,0000.16,-000.10,0000.10,0000.42,-000.06,17.0,24.2,,00.0,0632.0,31.0
2021-02-28T05:07:00Z,00000200,01000000,-000.18,-000.12,0000.09,0000.17,0000.20,0000.20,0000.10,-000.20,0000.22,17.0,24.2,,00.0,0632.1,31.0
2021-02-28T05:08:00Z,00000200,01000000,0000.32,0000.30,-000.04,0000.05,0000.06,-000.01,-000.12,0000.05,-000.09,17.0,24.2,,00.0,0632.1,31.0
2021-02-28T05:09:00Z,00000200,01000000,0000.18,-000.01,-000.07,0000.28,0000.23,0000.37,-000.01,0000.06,0000.08,17.0,24.2,,00.0,0632.1,31.0
2021-02-28T05:10:00Z,00000200,01000000,-000.03,0000.10,-000.07,0000.53,0000.07,0000.34,0000.21,-000.09,0000.27,17.0,24.2,,00.0,0632.1,31.0
2021-02-28T05:11:00Z,00000200,01000000,0000.32,-000.09,-000.18,0000.00,0000.06,0000.17,-000.25,0000.15,-000.05,17.0,24.2,,00.0,0632.1,31.0
2021-02-28T05:12:00Z,00000200,01000000,0000.05,0000.05,-000.20,0000.17,0000.12,0000.03,0000.11,-000.26,0000.01,17.0,24.2,,00.0,0632.0,31.0
2021-02-28T05:13:00Z,00000200,01000000,-000.27,0000.03,0000.22,-000.03,-000.07,0000.14,-000.03,-000.04,-000.49,17.0,24.2,,00.0,0632.0,31.0
2021-02-28T05:14:00Z,00000200,01000000,0000.66,0000.07,-000.15,0000.51,0000.16,0000.05,0000.14,0000.20,0000.09,17.0,24.1,,00.0,0632.0,31.0
2021-02-28T05:15:00Z,00000200,01000000,-000.47,0000.37,-000.03,0000.16,0000.11,0000.36,-000.00,-000.00,0000.13,17.0,24.1,,00.0,0632.0,31.0
2021-02-28T05:16:00Z,00000200,01000000,-000.29,-000.12,0000.11,-000.17,0000.25,0000.07,0000.10,0000.11,0000.36,17.1,24.2,,00.0,0632.0,31.0
2021-02-28T05:17:00Z,00000200,01000000,-000.62,-000.05,0000.00,0000.08,-000.05,0000.07,0000.21,0000.16,-000.12,17.3,24.2,,00.0,0632.0,31.0
2021-02-28T05:18:00Z,00000200,01000000,-000.13,-000.02,0000.24,-000.05,0000.29,0000.06,-000.10,0000.17,0000.42,17.4,24.3,,00.0,0632.0,31.1
2021-02-28T05:19:00Z,00000200,01000000,-000.44,0000.15,0000.15,0000.17,0000.12,0000.16,0000.07,0000.26,-000.31,17.5,24.3,,00.0,0632.0,31.1
2021-02-28T05:20:00Z,00000200,01000000,0000.20,0000.33,0000.25,0000.09,0000.06,0000.15,0000.34,-000.44,0000.09,17.6,24.4,,00.0,0632.0,31.1
2021-02-28T05:21:00Z,00000200,01000000,-000.07,0000.22,0000.00,-000.51,0000.25,-000.05,-000.01,0000.65,-000.13,17.7,24.5,,00.0,0632.0,31.1
2021-02-28T05:22:00Z,00000200,01000000,-000.42,-000.15,-000.21,0000.07,0000.26,0000.10,-000.31,-000.00,0000.13,17.7,24.5,,00.0,0632.0,31.1
2021-02-28T05:23:00Z,00000200,01000000,0000.41,0000.08,-000.21,-000.12,0000.10,-000.05,-000.17,-000.03,0000.12,17.8,24.5,,00.0,0632.0,31.1
2021-02-28T05:24:00Z,00000200,01000000,-000.07,0000.05,-000.12,-000.32,0000.17,0000.04,0000.38,-000.02,0000.56,17.7,24.5,,00.0,0632.0,31.1
2021-02-28T05:25:00Z,00000200,01000000,-000.13,0000.09,-000.01,0000.57,0000.07,0000.23,0000.22,0000.06,-000.35,17.8,24.5,,00.0,0632.0,31.1
2021-02-28T05:26:00Z,00000200,01000000,0000.08,0000.08,0000.04,0000.45,0000.16,0000.17,0000.03,-000.25,-000.27,17.7,24.5,,00.0,0632.0,31.1
2021-02-28T05:27:00Z,00000200,01000000,0000.19,0000.24,0000.07,0000.21,0000.09,0000.19,-000.08,0000.16,-000.03,17.7,24.5,,00.0,0632.0,31.0
2021-02-28T05:28:00Z,00000200,01000000,-000.45,-000.09,-000.08,-000.08,-000.07,0000.13,-000.00,-000.21,0000.10,17.7,24.5,,00.0,0632.0,31.1
2021-02-28T05:29:00Z,00000200,01000000,-000.32,-000.28,-000.12,0000.31,0000.04,0000.06,-000.00,0000.24,-000.10,17.6,24.5,,00.0,0632.0,31.1
2021-02-28T05:30:00Z,00000200,01000000,0000.18,0000.12,0000.01,0000.14,0000.05,0000.17,-000.14,0000.37,0000.21,17.6,24.5,,00.0,0632.0,31.1
2021-02-28T05:31:00Z,00000200,01000000,-000.26,0000.17,-000.20,0000.12,-000.06,0000.05,0000.09,-000.43,-000.03,17.6,24.5,,00.0,0632.1,31.1
2021-02-28T05:32:00Z,00000200,01000000,0000.47,0000.13,0000.07,-000.04,0000.05,0000.05,-000.16,0000.29,-000.04,17.6,24.5,,00.0,0632.1,31.1
2021-02-28T05:33:00Z,00000200,01000000,0000.11,0000.19,-000.24,0000.36,0000.05,0000.02,0000.29,-000.24,0000.22,17.6,24.5,,00.0,0632.1,31.1
2021-02-28T05:34:00Z,00000200,01000000,-000.49,0000.00,0000.04,-000.17,-000.04,0000.20,-000.31,-000.03,-000.35,17.5,24.5,,00.0,0632.1,31.1
2021-02-28T05:35:00Z,00000200,01000000,0000.11,0000.14,-000.17,-000.15,0000.12,-000.01,-000.11,-000.28,-000.03,17.5,24.4,,00.0,0632.1,31.0
2021-02-28T05:36:00Z,00000200,01000000,0000.08,0000.04,-000.21,0000.21,0000.13,-000.04,0000.27,-000.05,-000.04,17.5,24.4,,00.0,0632.1,31.0
2021-02-28T05:37:00Z,00000200,01000000,-000.66,0000.25,0000.14,0000.10,0000.06,0000.17,-000.05,0000.64,-000.01,17.5,24.4,,00.0,0632.0,31.0
2021-02-28T05:38:00Z,00000200,01000000,-000.45,-000.07,-000.03,0000.64,0000.02,0000.17,-000.16,-000.33,0000.26,17.5,24.4,,00.0,0632.1,31.0
2021-02-28T05:39:00Z,00000200,01000000,0000.14,-000.15,-000.18,0000.12,0000.11,-000.02,0000.10,0000.33,0000.09,17.5,24.4,,00.0,0632.0,31.0
2021-02-28T05:40:00Z,00000200,01000000,-000.43,0000.16,0000.09,-000.04,0000.04,0000.10,0000.14,-000.21,-000.26,17.4,24.4,,00.0,0632.1,31.0
2021-02-28T05:41:00Z,00000200,01000000,-000.89,0000.28,-000.16,0000.14,-000.14,-000.02,0000.20,-000.16,0000.57,17.4,24.4,,00.0,0632.1,31.0
2021-02-28T05:42:00Z,00000200,01000000,-000.40,0000.17,0000.01,-000.18,0000.08,0000.05,-000.20,0000.45,-000.08,17.4,24.4,,00.0,0632.1,31.0
2021-02-28T05:43:00Z,00000200,01010000,-000.49,0000.19,0000.01,0000.00,0000.07,0000.23,-000.05,-000.32,-000.07,17.4,24.4,,00.0,0632.1,31.0
2021-02-28T05:44:00Z,00000200,01000000,-000.06,-000.12,-000.08,0000.39,0000.19,0000.04,0000.04,0000.16,0000.04,17.4,24.4,,00.0,0632.1,31.0
2021-02-28T05:45:00Z,00000200,01000000,-000.55,-000.04,0000.02,-000.01,-000.09,0000.08,-000.10,-000.26,-000.37,17.4,24.4,,00.0,0632.1,31.0
2021-02-28T05:46:00Z,00000200,01000000,0000.24,-000.04,-000.21,0000.56,0000.16,0000.10,0000.12,0000.25,0000.09,17.3,24.4,,00.0,0632.1,31.0
2021-02-28T05:47:00Z,00000200,01000000,-000.23,0000.24,0000.10,0000.15,0000.18,-000.02,0000.27,-000.08,0000.18,17.3,24.4,,00.0,0632.1,31.0
2021-02-28T05:48:00Z,00000200,01000000,-000.17,0000.07,0000.23,0000.17,0000.06,0000.17,-000.24,-000.37,0000.04,17.3,24.4,,00.0,0632.1,31.0
2021-02-28T05:49:00Z,00000200,01000000,-000.26,0000.08,-000.09,0000.41,-000.03,-000.14,-000.24,0000.31,-000.33,17.3,24.4,,00.0,0632.1,31.0
2021-02-28T05:50:00Z,00000200,01000000,0000.27,0000.07,0000.11,0000.63,0000.17,0000.22,-000.05,0000.13,0000.23,17.3,24.3,,00.0,0632.2,31.0
2021-02-28T05:51:00Z,00000200,01000000,-000.49,0000.13,0000.07,-000.18,0000.07,0000.17,0000.20,-000.18,0000.01,17.3,24.3,,00.0,0632.2,31.0
2021-02-28T05:52:00Z,00000200,01000000,-000.62,0000.09,-000.06,0000.33,0000.11,0000.14,0000.17,0000.02,0000.01,17.3,24.3,,00.0,0632.2,31.0
2021-02-28T05:53:00Z,00000200,01000000,-000.19,0000.08,0000.08,0000.05,0000.04,0000.19,0000.19,0000.21,0000.32,17.3,24.3,,00.0,0632.2,31.0
2021-02-28T05:54:00Z,00000200,01000000,-000.12,0000.17,-000.17,-000.04,0000.04,0000.03,-000.07,-000.38,-000.20,17.2,24.3,,00.0,0632.2,31.0
2021-02-28T05:55:00Z,00000200,01000000,-000.20,0000.05,0000.13,-000.08,0000.14,-000.01,-000.23,0000.21,-000.27,17.2,24.3,,00.0,0632.1,31.0
2021-02-28T05:56:00Z,00000200,01000000,0000.16,0000.15,-000.19,0000.01,0000.03,-000.33,0000.31,0000.38,0000.26,17.2,24.3,,00.0,0632.1,31.0
2021-02-28T05:57:00Z,00000200,41000000,,,,,,,0000.30,-000.24,0000.20,17.2,24.3,,00.0,0632.1,31.0
2021-02-28T05:58:00Z,00000200,61000000,,,,,,,-000.28,-000.15,0000.00,16.8,24.4,,00.0,0631.2,31.0
2021-02-28T05:59:00Z,00000200,21000000,,,,,,,-000.23,-000.24,-000.13,16.8,24.5,,00.0,0631.2,31.0
